Location: Bothwell
(41.7170°N, 112.2589°W)
Time: 05:07:36
(UTC+00:00)

Transit 2A Rocket - Visible Passes

Search period start: 10 May 2026 00:00
Search period end: 20 May 2026 00:00
Orbit: 587 x 896 km, 66.7° (Epoch: 9 May)

Date Brightness Start Highest point End Pass type
(mag) Time Alt. Az. Time Alt. Az. Time Alt. Az.
10 May 5.5 02:57:08 10° S 03:02:34 43° ESE 03:07:41 10° NE visible
10 May 7.0 04:40:02 10° WSW 04:45:03 31° NW 04:49:46 10° NNE visible
10 May 6.9 11:40:07 10° NNW 11:44:12 30° NE 11:48:02 10° ESE visible
11 May 6.0 03:53:33 10° SW 03:59:08 52° NW 04:04:21 10° NNE visible
11 May 8.4 05:41:12 10° NW 05:42:37 11° NW 05:44:01 10° NNW visible
11 May 7.8 10:54:58 10° N 10:58:08 18° NE 11:01:08 10° E visible
12 May 5.2 03:07:34 10° SSW 03:13:21 90° WNW 03:18:43 10° NNE visible
12 May 8.0 04:52:46 10° W 04:56:22 17° NW 04:59:48 10° N visible
12 May 8.3 10:10:45 10° NNE 10:11:53 11° NE 10:13:01 10° NE visible
13 May 7.4 04:05:31 10° WSW 04:10:16 27° NW 04:14:44 10° N visible
13 May 6.4 11:05:09 10° NNW 11:09:22 35° NE 11:13:21 10° ESE visible
14 May 6.5 03:18:53 10° SW 03:24:19 45° NW 03:29:23 10° NNE visible
14 May 7.4 10:19:55 10° N 10:23:21 20° NE 10:26:37 10° E visible
15 May 8.2 04:18:31 10° WNW 04:21:37 15° NW 04:24:36 10° N visible
15 May 8.0 09:35:16 10° NNE 09:37:09 12° NE 09:39:00 10° ENE visible
15 May 4.6 11:15:46 10° NNW 11:20:19 83° ENE 11:24:37 10° SSE visible
16 May 7.8 03:31:02 10° W 03:35:29 24° NW 03:39:41 10° N visible
16 May 5.9 10:30:11 10° NNW 10:34:31 41° NE 10:38:36 10° SE visible
17 May 7.0 09:44:52 10° N 09:48:33 23° NE 09:52:03 10° E visible
17 May 5.0 11:26:51 10° NW 11:31:00 38° WSW 11:34:58 10° S visible
18 May 8.2 03:44:23 10° WNW 03:46:53 13° NW 03:49:18 10° NNW visible
18 May 7.7 09:00:00 10° N 09:02:24 14° NE 09:04:44 10° ENE visible
18 May 4.4 10:40:53 10° NNW 10:45:24 81° WSW 10:49:41 10° SSE visible
19 May 5.4 09:55:15 10° NNW 09:59:39 50° NE 10:03:49 10° SE visible
